Cloud_Cover
74 18 100 18 86 100 100 100 95 16 98 36 51 100 98 72 64 100 100 100 100 100 100 100 4 0 0 0 0 0 0 0 0 15 0 0 0 0 0 0 0 0 0 0
100 92 71 19 33 88 100 24 67 5 94 78 100 100 100 100 100 100 99 94 100 100 5 0 0 0 0 0 0 0 0 0 0 0 0 4 0 0 0 0 0 0 0 0
100 100 50 82 35 95 62 100 92 11 58 72 100 100 85 100 100 100 100 100 89 3 5 2 0 0 0 0 0 0 0 0 0 0 4 0 0 0 0 0 0 3 5 0
100 100 81 100 93 25 100 35 67 37 9 68 100 85 100 96 100 100 96 99 94 99 91 0 0 0 0 0 0 0 0 0 0 0 4 5 5 1 5 39 100 5 45 0
82 100 100 82 58 91 85 74 100 6 5 91 100 100 99 100 100 100 100 100 100 100 94 0 0 0 0 0 0 0 0 0 0 0 4 4 5 8 68 98 100 11 12 2
100 100 96 72 5 8 95 100 49 5 8 92 90 57 95 100 100 100 100 100 100 98 0 0 0 0 0 0 0 0 0 0 0 0 5 5 24 5 73 100 40 100 68 6
100 100 74 5 25 5 28 12 51 30 28 60 100 84 68 90 100 100 100 100 100 96 2 0 0 0 0 0 0 0 3 5 3 5 3 18 67 95 75 10 32 94 77 41
68 98 68 99 45 24 79 56 95 100 5 6 98 96 97 58 15 100 100 100 50 91 4 0 0 0 0 0 0 0 0 0 5 100 67 53 98 100 92 5 24 16 52 1
99 15 87 94 96 90 99 80 100 59 6 5 61 100 100 19 100 100 96 100 46 100 3 0 0 0 0 0 0 0 0 0 92 100 100 100 100 100 100 48 100 5 0 0
100 73 55 27 100 100 100 100 23 98 99 13 81 100 100 75 100 100 99 99 100 73 0 0 0 0 0 0 0 0 0 0 57 86 98 100 100 100 100 100 99 4 4 3
56 8 5 86 100 99 80 100 90 63 88 37 13 100 100 100 100 100 100 100 100 15 5 4 0 0 0 0 0 0 0 0 0 0 4 99 100 100 90 100 68 5 5 5
100 100 98 100 100 100 17 24 78 7 73 5 98 84 100 100 100 100 100 100 27 9 5 0 4 0 0 0 0 0 2 0 0 0 1 23 84 28 2 30 12 5 5 5
100 100 100 67 90 98 100 99 91 41 100 82 15 100 100 100 86 100 68 4 0 5 2 0 2 0 0 0 0 0 4 11 3 0 1 0 5 0 0 5 5 5 5 85
93 72 6 4 4 14 100 99 89 98 100 78 93 100 10 4 51 2 0 2 22 7 47 5 5 6 35 0 0 0 3 5 5 22 4 43 21 29 5 5 10 59 70 100
3 0 0 38 100 99 100 100 98 100 100 100 100 64 4 5 5 36 18 0 0 1 5 5 5 40 36 0 0 0 4 8 81 5 28 3 4 58 5 81 100 44 100 88
100 87 5 5 92 97 100 100 100 100 100 100 31 96 76 95 8 99 0 0 0 4 6 4 0 0 0 45 85 100 100 99 6 100 100 41 99 100 100 100 100 100 100 19
99 60 94 10 0 5 34 100 100 100 100 39 44 86 90 49 66 43 0 0 0 0 0 0 0 0 62 100 100 100 100 98 100 100 100 100 100 88 100 94 100 99 73 84
100 94 100 100 1 0 82 100 100 100 100 99 100 100 100 93 39 2 0 0 0 3 2 2 0 54 100 100 100 100 100 100 100 100 100 100 100 100 94 99 94 100 27 100
34 67 72 1 0 0 0 100 100 100 100 100 100 100 59 1 0 0 0 3 2 2 4 5 9 97 100 100 100 100 100 100 100 100 100 100 100 100 100 99 92 100 98 100
100 100 58 3 0 22 14 100 100 100 98 100 100 75 5 0 5 32 41 5 95 100 95 3 0 1 96 96 54 34 41 97 99 100 100 100 100 100 100 100 100 100 18 27
100 100 100 76 3 12 30 72 20 59 93 98 50 24 5 0 4 2 1 4 20 42 1 0 5 5 100 96 42 12 10 100 51 98 100 100 100 100 100 100 98 100 93 100
100 100 100 5 64 84 73 100 100 100 93 83 100 11 0 0 0 19 5 3 0 3 5 3 49 98 100 100 79 29 41 34 18 94 100 100 100 100 100 55 48 47 100 65
15 7 5 6 8 14 80 100 100 100 100 100 96 4 0 5 5 5 5 5 0 0 0 4 3 5 87 12 15 0 0 9 84 96 33 5 64 19 4 5 0 2 3 5
100 100 100 100 100 100 100 78 31 14 4 5 5 5 18 15 4 5 5 5 5 4 0 4 4 1 18 0 37 5 5 5 42 3 5 3 0 0 0 0 0 4 5 5
57 100 100 100 100 100 92 21 3 3 1 0 1 35 23 5 0 5 5 5 5 5 5 0 0 12 4 0 86 2 4 5 4 2 0 0 0 0 4 5 5 5 5 5
75 70 94 62 6 6 11 0 0 0 5 52 42 6 1 5 5 5 5 5 5 3 16 5 2 0 0 3 0 0 0 0 0 0 0 4 5 5 5 5 5 5 5 12